Location: Cosy Dell
(34.2789°N, 117.4537°W)
Time: 21:11:06
(UTC+00:00)

OAO 2 Rocket - Pass Details

Date: 14 July 2020
Orbit: 676 x 746 km, 35.0° (Epoch: 13 August)

Event Time Altitude Azimuth Distance (km) Brightness Sun altitude
Rises 03:27:05 0° 280° (W) 3,115 8.2 -5.2°
Reaches altitude 10° 03:29:29 10° 279° (W) 2,205 7.2 -5.6°
Maximum altitude 03:34:41 77° 194° (SSW) 753 3.5 -6.5°
Drops below altitude 10° 03:39:57 10° 109° (ESE) 2,239 5.3 -7.5°
Enters shadow 03:40:19 - 109° (ESE) 2,375 5.4 -7.5°
